Location: ??????
(33.3472°N, 35.4764°E)
Time: 06:55:40
(UTC+00:00)

Cosmos 2151 - Pass Details

Date: 21 August 2019
Orbit: 580 x 602 km, 82.5° (Epoch: 16 September)

Event Time Altitude Azimuth Distance (km) Brightness Sun altitude
Rises 00:58:14 0° 359° (N) 2,809 6.9 -24.6°
Reaches altitude 10° 01:00:29 10° 4° (N) 1,904 6.0 -24.2°
Maximum altitude 01:04:35 53° 82° (E) 713 3.6 -23.5°
Enters shadow 01:06:55 24° 150° (SSE) 1,227 4.5 -23.1°
